Regional Weather Roundup
Issued by NWS

Home | Current Version | Previous Version | Text Only | Print | Product List | Glossary Off
Versions: 1 2 3 4 5 6 7 8 9 10 11 12 13 14 15 16 17 18 19 20 21 22 23 24 25 26 27 28 29 30 31 32 33 34 35 36 37 38 39 40 41 42 43 44 45 46 47

000
ASUS45 KCYS 030510
RWRWY

WYOMING REGIONAL WEATHER ROUNDUP
NATIONAL WEATHER SERVICE CHEYENNE WY
1100 PM MDT THU JUL 02 2015

NOTE:  "FAIR" INDICATES FEW OR NO CLOUDS BELOW 12,000 FEET
WITH NO SIGNIFICANT WEATHER AND/OR OBSTRUCTIONS TO VISIBILITY.

WYZ001-030600-
YELLOWSTONE NATIONAL PARK

CITY           SKY/WX    TMP DP  RH WIND       PRES   REMARKS
LK YELLOWSTONE   N/A     55  41  59 CALM      30.35R
W YELLOWSTONE  NOT AVBL

$$
WYZ002>013-054>058-071-098>099-030600-
NORTHERN WYOMING

CITY           SKY/WX    TMP DP  RH WIND       PRES   REMARKS
JACKSON        FAIR      55  43  62 NE7       30.21R
CODY           FAIR      68  48  49 W5        30.19S
GREYBULL       MOCLDY    79  49  34 NW12      30.07S
WORLAND        FAIR      74  53  48 SE9       30.10S
SHERIDAN       FAIR      62  55  77 CALM      30.14R
BUFFALO        FAIR      63  53  70 NW8       30.20S
GILLETTE       FAIR      57  51  80 CALM      30.15F
HULETT         FAIR      63  55  77 SE6       30.15F
NEWCASTLE      FAIR      61  52  72 MISG      30.15F

$$
WYZ014>020-022>026-101>103-030600-
CENTRAL WYOMING

CITY           SKY/WX    TMP DP  RH WIND       PRES   REMARKS
BIG PINEY      FAIR      60  38  43 SW3       30.27R
PINEDALE       FAIR      59  37  44 SW5       30.27R
DUBOIS         FAIR      61  45  55 CALM      30.31R
LANDER         MOCLDY    69  53  56 W5        30.19R
RIVERTON       MOCLDY    71  53  52 E15       30.20R
CASPER         MOCLDY    66  53  63 E8        30.21R
DOUGLAS        CLOUDY    66  56  70 E6        30.21S

$$
WYZ021-027>030-104>119-030600-
SOUTHERN WYOMING

CITY           SKY/WX    TMP DP  RH WIND       PRES   REMARKS
EVANSTON       FAIR      71  41  33 N8        30.25R
KEMMERER       FAIR      64  41  42 NE15      30.28R
FORT BRIDGER   CLEAR     72  32  23 NE5       30.27R
ROCK SPRINGS   FAIR      65  47  52 NE7       30.24R
DIXON          FAIR      67  45  45 E14G23    30.23S
RAWLINS        FAIR      59  55  87 NE14      30.24F
SARATOGA       FAIR      55  50  82 S14       30.27F
LARAMIE        FAIR      57  51  80 E9        30.30F
CHEYENNE       FAIR      64  53  67 SW5       30.26S
TORRINGTON     MOCLDY    66  61  84 NE9       30.14S
PINE BLUFFS    FAIR      63  54  72 SW3       30.21F

$$



USA.gov is the U.S. government's official web portal to all federal, state and local government web resources and services.